Home   Weather   Cagliari   Past weeks

Flag for Italy Past Weather in Cagliari, Italy — Yesterday and Last 2 Weeks

Now
64 °F

Sunny.


Feels Like: 64 °F
Forecast: 61 / 78 °F
Wind: 7 mph from Northwest

Location: Cagliari / Elmas

Current Time: Sep 25, 2016 at 9:10:52 AM

Latest Report: Sep 25, 2016 at 8:20 AM


Visibility: 10 mi

Pressure: 30.09 "Hg

Humidity: 88%

Dew Point: 61 °F

Location of CagliariLocation

Past Weather in Cagliari — Graph

°F

Cagliari Temperature Yesterday

Maximum temperature yesterday: 79 °F (at 1:20 PM)
Minimum temperature yesterday: 61 °F (at 6:50 AM)
Average temperature yesterday: 70 °F

High & Low Weather Summary for the Past Weeks

 TemperatureHumidityPressure
High90 °F (Sep 11, 1:50 PM)100% (Sep 16, 5:20 AM)30.24 "Hg (Sep 16, 5:20 AM)
Low59 °F (Sep 22, 5:50 AM)33% (Sep 11, 1:50 PM)29.86 "Hg (Sep 10, 3:50 PM)
Average73 °F72%30.00 "Hg
* Reported Sep 10 7:20 AM — Sep 25 7:50 AM, Cagliari, Weather by CustomWeather, © 2016

Note: Actual official high and low records may vary slightly from our data, if they occured in-between our weather recording intervals... More about our weather records

Advertising

Cagliari Weather History for the Previous 24 Hours

Scroll right to see more
 ConditionsComfort  
Time TempWeatherWind HumidityBarometerVisibility
7:50 AM
Sun, Sep 25
64 °FSunny.6 mph88%30.09 "Hg10 mi
7:20 AM63 °FSunny.6 mph94%30.07 "Hg10 mi
6:50 AM64 °FClear.7 mph88%30.09 "Hg10 mi
6:20 AM63 °FClear.7 mph94%30.09 "Hg10 mi
5:50 AM63 °FClear.6 mph94%30.09 "Hg10 mi
5:20 AM64 °FClear.7 mph94%30.07 "Hg10 mi
4:50 AM64 °FClear.6 mph94%30.09 "Hg10 mi
3:50 AM64 °FClear.3 mph88%30.09 "Hg10 mi
3:20 AM64 °FClear.6 mph88%30.09 "Hg10 mi
2:20 AM64 °FClear.6 mph88%30.12 "Hg10 mi
1:50 AM64 °FClear.6 mph94%30.12 "Hg10 mi
1:20 AM66 °FClear.5 mph88%30.12 "Hg10 mi
12:50 AM66 °FClear.1 mph88%30.12 "Hg10 mi
12:20 AM66 °FClear.2 mph88%30.12 "Hg10 mi
11:50 PM
Sat, Sep 24
68 °FClear.2 mph83%30.12 "Hg10 mi
11:20 PM68 °FPassing clouds.3 mph83%30.12 "HgN/A
10:50 PM68 °FClear.3 mph83%30.12 "Hg10 mi
10:20 PM70 °FClear.3 mph78%30.12 "Hg10 mi
9:50 PM70 °FClear.5 mph78%30.12 "Hg10 mi
9:20 PM72 °FClear.6 mph73%30.15 "Hg10 mi
8:50 PM72 °FPassing clouds.5 mph73%30.12 "HgN/A
8:20 PM73 °FPassing clouds.7 mph74%30.12 "HgN/A
7:50 PM73 °FPassing clouds.3 mph74%30.12 "HgN/A
7:20 PM73 °FPassing clouds.3 mph74%30.12 "HgN/A
6:50 PM73 °FScattered clouds.7 mph74%30.12 "HgN/A
6:20 PM73 °FScattered clouds.7 mph74%30.12 "HgN/A
5:50 PM75 °FScattered clouds.8 mph74%30.12 "HgN/A
5:20 PM73 °FScattered clouds.8 mph74%30.12 "HgN/A
4:50 PM75 °FScattered clouds.9 mph69%30.12 "HgN/A
4:20 PM77 °FScattered clouds.9 mph69%30.12 "HgN/A
3:50 PM77 °FScattered showers. Scattered clouds.13 mph69%30.15 "HgN/A
3:20 PM79 °FScattered showers. Passing clouds.13 mph65%30.15 "HgN/A
2:50 PM79 °FScattered showers. Passing clouds.10 mph61%30.15 "HgN/A
2:20 PM77 °FScattered showers. Passing clouds.10 mph69%30.15 "HgN/A
1:50 PM77 °FScattered clouds.9 mph65%30.18 "HgN/A
1:20 PM79 °FScattered clouds.8 mph61%30.18 "HgN/A
12:50 PM77 °FScattered clouds.6 mph65%30.18 "HgN/A
12:20 PM75 °FScattered clouds.6 mph69%30.18 "HgN/A
11:50 AM75 °FScattered clouds.6 mph65%30.18 "HgN/A
11:20 AM73 °FPassing clouds.5 mph69%30.21 "HgN/A
10:50 AM72 °FPassing clouds.3 mph78%30.21 "HgN/A
10:20 AM70 °FSunny.2 mph78%30.21 "Hg10 mi
9:50 AM68 °FPassing clouds.5 mph83%30.21 "HgN/A
9:20 AM64 °FSunny.5 mph88%30.21 "Hg10 mi
Weather by CustomWeather, © 2016

See weather overviewHow to use our weather pages